Location: Cutler
(25.6150°N, 80.3110°W)
Time: 13:16:40
(UTC-05:00)

Vanguard 3 - Visible Passes

Search period start: 18 February 2018 00:00
Search period end: 28 February 2018 00:00
Orbit: 508 x 3264 km, 33.3° (Epoch: 17 February)

Date Brightness Start Highest point End Pass type
(mag) Time Alt. Az. Time Alt. Az. Time Alt. Az.
18 Feb 7.2 19:49:18 10° NW 19:53:04 43° NNE 19:53:16 43° NNE visible
19 Feb 7.5 18:36:13 10° NW 18:39:27 28° N 18:43:10 10° ENE visible
19 Feb 8.9 20:46:56 10° WNW 20:48:20 22° WNW 20:48:20 22° WNW visible
20 Feb 6.8 19:34:03 10° WNW 19:37:43 49° NNE 19:38:51 39° ENE visible
21 Feb 8.1 20:31:47 10° WNW 20:33:58 34° W 20:33:58 34° W visible
22 Feb 6.5 19:18:45 10° WNW 19:22:23 58° NNE 19:24:32 27° E visible
23 Feb 7.3 20:16:38 10° WNW 20:19:45 48° WSW 20:19:45 48° WSW visible
24 Feb 6.2 19:03:24 10° WNW 19:07:03 74° NNE 19:10:24 15° ESE visible
25 Feb 7.5 20:01:33 10° W 20:05:02 37° SSW 20:05:41 35° S visible
26 Feb 6.2 18:48:01 10° WNW 18:51:43 84° SSW 18:55:44 10° ESE visible
27 Feb 8.1 19:46:31 10° W 19:49:39 26° SSW 19:51:48 17° SSE visible
